TimeEDT,TemperatureF,Dew PointF,Humidity,Sea Level PressureIn,VisibilityMPH,Wind Direction,Wind SpeedMPH,Gust SpeedMPH,PrecipitationIn,Events,Conditions,WindDirDegrees,DateUTC
12:53 AM,66.9,57.9,73,30.01,10.0,WSW,11.5,-,0.00,,Mostly Cloudy,240,2012-10-05 04:53:00
1:53 AM,64.9,57.9,78,30.02,10.0,WSW,9.2,-,N/A,,Overcast,240,2012-10-05 05:53:00
2:53 AM,64.9,55.9,73,30.01,10.0,West,11.5,-,N/A,,Overcast,260,2012-10-05 06:53:00
3:53 AM,63.0,55.0,75,30.01,10.0,WNW,17.3,-,N/A,,Overcast,290,2012-10-05 07:53:00
4:22 AM,62.6,51.8,68,30.03,10.0,WNW,11.5,-,N/A,,Overcast,300,2012-10-05 08:22:00
4:46 AM,60.8,51.8,72,30.04,10.0,WNW,12.7,-,N/A,,Overcast,290,2012-10-05 08:46:00
4:53 AM,61.0,51.1,70,30.03,10.0,West,11.5,-,N/A,,Overcast,280,2012-10-05 08:53:00
5:15 AM,60.8,48.2,63,30.06,10.0,West,10.4,-,N/A,,Overcast,270,2012-10-05 09:15:00
5:53 AM,60.1,48.0,64,30.04,10.0,West,10.4,-,N/A,,Overcast,260,2012-10-05 09:53:00
6:53 AM,59.0,48.0,67,30.05,10.0,West,10.4,17.3,N/A,,Partly Cloudy,280,2012-10-05 10:53:00
7:53 AM,57.9,46.9,67,30.06,10.0,West,11.5,-,N/A,,Mostly Cloudy,260,2012-10-05 11:53:00
8:53 AM,57.0,48.0,72,30.08,10.0,West,8.1,-,0.01,,Scattered Clouds,260,2012-10-05 12:53:00
9:53 AM,59.0,45.0,60,30.05,10.0,West,9.2,-,N/A,,Partly Cloudy,270,2012-10-05 13:53:00
11:53 AM,59.0,44.1,58,30.06,10.0,WSW,8.1,-,N/A,,Scattered Clouds,250,2012-10-05 15:53:00
12:53 PM,59.0,43.0,55,30.05,10.0,WSW,12.7,-,N/A,,Scattered Clouds,250,2012-10-05 16:53:00
1:53 PM,59.0,43.0,55,30.04,10.0,West,12.7,-,N/A,,Overcast,260,2012-10-05 17:53:00
2:53 PM,59.0,42.1,53,30.01,10.0,WSW,12.7,-,N/A,,Overcast,250,2012-10-05 18:53:00
3:53 PM,57.9,42.1,56,30.00,10.0,WSW,11.5,-,N/A,,Overcast,250,2012-10-05 19:53:00
4:53 PM,57.0,43.0,59,29.99,10.0,West,10.4,-,0.00,Rain,Light Rain,260,2012-10-05 20:53:00
5:53 PM,52.0,43.0,71,30.00,8.0,WSW,10.4,-,0.02,Rain,Light Rain,250,2012-10-05 21:53:00
6:53 PM,51.1,43.0,74,30.01,10.0,WSW,11.5,-,0.00,,Overcast,250,2012-10-05 22:53:00
7:53 PM,50.0,43.0,77,30.01,10.0,WSW,5.8,-,0.01,Rain,Light Rain,240,2012-10-05 23:53:00
8:53 PM,46.9,39.9,77,30.00,9.0,West,10.4,-,0.06,Rain,Light Rain,270,2012-10-06 00:53:00
9:53 PM,48.0,43.0,83,30.02,10.0,WSW,11.5,-,0.01,,Overcast,240,2012-10-06 01:53:00
10:53 PM,46.9,42.1,83,30.00,10.0,SW,8.1,-,0.02,,Overcast,230,2012-10-06 02:53:00
11:44 PM,46.4,42.8,87,29.99,10.0,SSW,11.5,-,0.01,,Overcast,200,2012-10-06 03:44:00
11:53 PM,46.9,42.1,83,29.98,10.0,SSW,10.4,-,0.01,,Overcast,210,2012-10-06 03:53:00